Regional Weather Roundup
Issued by NWS

Home | Current Version | Previous Version | Text Only | Print | Product List | Glossary Off
Versions: 1 2 3 4 5 6 7 8 9 10 11 12 13 14 15 16 17 18 19 20 21 22 23 24 25 26 27 28 29 30 31 32 33 34 35 36 37 38 39 40 41 42 43 44 45 46 47 48 49 50

000
ASUS43 KOAX 231610
RWRNE

WEATHER ROUNDUP FOR NEBRASKA
NATIONAL WEATHER SERVICE OMAHA NE
1100 AM CDT SAT JUL 23 2016

NOTES: SATELLITE DATA IS BEING USED TO AUGMENT CLOUD COVER ABOVE
       12000 FEET.
       "FAIR" INDICATES FEW OR NO CLOUDS BELOW 12,000 FEET WITH NO
       SIGNIFICANT WEATHER AND/OR OBSTRUCTIONS TO VISIBILITY.

  * THESE STATIONS DO NOT REPORT WEATHER SUCH AS RAIN...SNOW OR FOG.

NEZ001>004-019>022-054>056-231700-
NEBRASKA PANHANDLE

CITY           SKY/WX    TMP DP  RH WIND       PRES   REMARKS
SCOTTSBLUFF    SUNNY     86  54  33 W10       29.99R
ALLIANCE       SUNNY     84  54  35 NW12      29.96R
CHADRON        SUNNY     82  54  37 W18G28    29.92R
KIMBALL        SUNNY     90  47  22 NW20G28   30.06R
SIDNEY         CLOUDY    84  54  35 W7        30.03S
$$

NEZ057>060-069>072-079>082-231700-
SOUTHWEST NEBRASKA

CITY           SKY/WX    TMP DP  RH WIND       PRES   REMARKS
NORTH PLATTE   CLOUDY    83  68  60 SW10G17   29.90F
IMPERIAL       CLOUDY    79  65  62 SW9       29.96S
LEXINGTON      CLOUDY    82  68  62 SW5       29.91R
MCCOOK         CLOUDY    80  67  64 W7        29.90F
OGALLALA       CLOUDY    81  64  57 SW7G16    29.94F
$$

NEZ005>010-023>029-035>040-094-231700-
NORTH CENTRAL NEBRASKA

CITY           SKY/WX    TMP DP  RH WIND       PRES   REMARKS
VALENTINE      CLOUDY    82  64  54 SW13      29.83F
AINSWORTH      SUNNY     85  66  52 S13       29.84F
BROKEN BOW     SUNNY     82  70  66 SW13      29.89F
O`NEILL        SUNNY     85  66  54 S12       29.84F
ORD            SUNNY     81  70  69 S7        29.86S
THEDFORD       SUNNY     88  65  46 SW20G28   29.89S
$$

NEZ041-046>049-061>064-073>077-083>087-231700-
SOUTH CENTRAL NEBRASKA

CITY           SKY/WX    TMP DP  RH WIND       PRES   REMARKS
GRAND ISLAND   CLOUDY    84  71  65 SW6       29.86S
AURORA         CLOUDY    82  70  67 SW12      29.84F
HASTINGS       CLOUDY    80  67  64 S10       29.86S
HEBRON         MOSUNNY   84  67  56 W5        29.87R
HOLDREGE       MOSUNNY   79  69  71 W3        29.87S
KEARNEY *      CLOUDY    82  70  65 W6        29.89R
YORK           CLOUDY    82  70  65 S9        29.84F
$$

NEZ011>018-030>034-042>045-231700-
NORTHEAST NEBRASKA

CITY           SKY/WX    TMP DP  RH WIND       PRES   REMARKS
NORFOLK        CLOUDY    84  72  67 S9        29.82F
ALBION         MOSUNNY   82  71  70 SE3       29.86S
BLAIR          CLOUDY    83  74  73 CALM      29.84S HX  90
FREMONT        CLOUDY    80  72  76 CALM      29.84S
TEKAMAH        CLOUDY    81  74  79 SE8       29.81F
WAYNE          CLOUDY    83  77  81 SW7       29.82F HX  92
$$

NEZ050>053-065>068-078-088>093-231700-
SOUTHEAST NEBRASKA

CITY           SKY/WX    TMP DP  RH WIND       PRES   REMARKS
LINCOLN        MOSUNNY   84  71  65 S9        29.83F
OMAHA EPPLEY   CLOUDY    83  72  69 S9        29.82F
BEATRICE       CLOUDY    82  70  67 S15       29.85S
FALLS CITY     CLOUDY    83  74  74 S12       29.86F
NEBRASKA CITY  CLOUDY    79  74  83 S9        29.86S
PLATTSMOUTH    CLOUDY    80  73  79 S9        29.84F
$$

NEZ044-045-051>053-067-231700-
OMAHA AREA

CITY           SKY/WX    TMP DP  RH WIND       PRES   REMARKS
OMAHA EPPLEY   CLOUDY    83  72  69 S9        29.82F
BLAIR          CLOUDY    83  74  73 CALM      29.84S HX  90
FREMONT        CLOUDY    80  72  76 CALM      29.84S
MILLARD        CLOUDY    83  73  71 SE8       29.83S
OFFUTT AFB     PTSUNNY   81  74  79 SE7       29.83F
PLATTSMOUTH    CLOUDY    80  73  79 S9        29.84F
WAHOO          FAIR      83  72  70 SW3       29.83S
$$



USA.gov is the U.S. government's official web portal to all federal, state and local government web resources and services.